N5BAB Weather Reports


time (UTC)temp
F
wind
direction
speed
knots
gust
knots
rain 1hr
in
rain 24hr
in
rain mn
in
humidity
%
barometer
mb
20260505195043 81 204 8.7 16.5 0.00 0.00 0.00 72 1005.7
20260505194554 81 233 7.8 13.9 0.00 0.00 0.00 74 1005.7
20260505194046 81 208 7.0 15.6 0.00 0.00 0.00 71 1005.8
20260505193544 81 205 8.7 19.1 0.00 0.00 0.00 72 1005.7
20260505193056 81 244 9.6 20.0 0.00 0.00 0.00 72 1005.6
20260505192543 80 204 10.4 20.0 0.00 0.00 0.00 72 1005.6
20260505192043 81 193 9.6 18.2 0.00 0.00 0.00 72 1005.6
20260505191556 80 172 7.8 21.7 0.00 0.00 0.00 72 1005.5
20260505191043 80 172 9.6 21.7 0.00 0.00 0.00 72 1005.5
20260505190543 81 216 9.6 20.9 0.00 0.00 0.00 71 1005.5
20260505190056 81 143 8.7 16.5 0.00 0.00 0.00 73 1005.0
20260505185543 81 202 8.7 17.4 0.00 0.00 0.00 73 1004.9
20260505185043 81 228 8.7 17.4 0.00 0.00 0.00 74 1005.1
20260505184558 79 215 7.0 16.5 0.00 0.00 0.00 78 1004.9
20260505184043 78 168 8.7 16.5 0.00 0.00 0.00 77 1004.8
20260505183542 78 197 7.8 21.7 0.00 0.00 0.00 77 1005.3
20260505183051 78 197 10.4 21.7 0.00 0.00 0.00 77 1005.4
20260505182543 77 225 8.7 17.4 0.00 0.00 0.00 77 1006.1
20260505182044 77 186 5.2 12.2 0.00 0.00 0.00 77 1006.5
20260505181551 77 146 6.1 13.9 0.00 0.00 0.00 78 1006.9
20260505181043 77 211 7.8 15.6 0.00 0.00 0.00 77 1006.7
20260505180543 77 205 5.2 16.5 0.00 0.00 0.00 79 1006.5
20260505180057 76 213 7.0 19.1 0.00 0.00 0.00 78 1006.5
20260505175543 76 213 9.6 20.9 0.00 0.00 0.00 79 1006.7
20260505175047 76 230 9.6 20.9 0.00 0.00 0.00 78 1006.4
20260505174610 76 218 9.6 15.6 0.00 0.00 0.00 79 1006.2
20260505174044 75 207 7.8 15.6 0.00 0.00 0.00 81 1006.1
20260505173541 75 200 7.0 17.4 0.00 0.00 0.00 80 1006.4
20260505173053 75 209 7.8 17.4 0.00 0.00 0.00 81 1006.2
20260505172542 75 198 5.2 15.6 0.00 0.00 0.00 81 1006.1
20260505172042 75 202 8.7 15.6 0.00 0.00 0.00 81 1006.1
20260505171550 74 163 7.0 16.5 0.00 0.00 0.00 82 1006.2
20260505171044 75 211 7.8 16.5 0.00 0.00 0.00 81 1006.4
20260505170541 75 209 7.0 15.6 0.00 0.00 0.00 82 1006.5
20260505170122 75 153 7.0 20.9 0.00 0.00 0.00 83 1006.4
20260505165541 74 209 9.6 20.9 0.00 0.00 0.00 84 1006.5
20260505165041 74 203 6.1 18.2 0.00 0.00 0.00 83 1006.5
20260505164552 74 165 7.8 19.1 0.00 0.00 0.00 82 1006.6
20260505164043 74 160 9.6 20.9 0.00 0.00 0.00 82 1006.5
20260505163543 74 226 9.6 20.9 0.00 0.00 0.00 84 1006.6
20260505163050 73 209 7.0 18.2 0.00 0.00 0.00 86 1006.5
20260505162543 72 215 8.7 16.5 0.00 0.00 0.00 86 1006.5
20260505162043 72 180 7.8 17.4 0.00 0.00 0.00 87 1006.6
20260505161557 71 178 7.0 17.4 0.00 0.00 0.00 89 1006.6
20260505161043 71 179 8.7 16.5 0.00 0.00 0.00 89 1006.4
20260505160547 70 150 6.1 13.9 0.00 0.00 0.00 89 1006.7
20260505153057 69 155 4.3 18.2 0.00 0.00 0.00 92 1006.9
20260505152543 69 159 4.3 18.2 0.00 0.00 0.00 92 1006.8
20260505152043 69 197 5.2 13.0 0.00 0.00 0.00 92 1006.9
20260505151552 69 159 4.3 13.0 0.00 0.00 0.00 92 1007.0
20260505151043 68 168 4.3 13.0 0.00 0.00 0.00 91 1007.1
20260505150543 68 172 4.3 13.0 0.00 0.00 0.00 91 1007.0
20260505140541 68 209 7.0 15.6 0.00 0.00 0.00 87 1007.1
20260505125038 68 201 4.3 13.9 0.00 0.00 0.00 85 1006.7
20260505124547 68 197 5.2 13.9 0.00 0.00 0.00 85 1006.6
20260505124039 68 201 6.1 17.4 0.00 0.00 0.00 85 1006.7
20260505123539 68 218 6.1 17.4 0.00 0.00 0.00 85 1006.6
20260505123108 68 199 6.1 13.0 0.00 0.00 0.00 84 1006.6
20260505122538 68 204 5.2 13.9 0.00 0.00 0.00 84 1006.5
20260505122038 68 222 6.1 13.9 0.00 0.00 0.00 84 1006.6
20260505121549 68 198 4.3 14.8 0.00 0.00 0.00 84 1006.4
20260505121038 68 208 6.1 14.8 0.00 0.00 0.00 84 1006.2
20260505120542 68 211 6.1 14.8 0.00 0.00 0.00 84 1006.2
20260505120051 68 185 5.2 13.9 0.00 0.00 0.00 84 1006.2
20260505115542 68 185 5.2 15.6 0.00 0.00 0.00 84 1006.2
20260505115039 68 216 7.0 15.6 0.00 0.00 0.00 84 1006.3
20260505114612 68 167 5.2 15.6 0.00 0.00 0.00 84 1006.1
20260505114042 68 195 7.8 15.6 0.00 0.00 0.00 84 1006.2
20260505113546 68 203 7.0 16.5 0.00 0.00 0.00 84 1006.1
20260505113044 68 203 7.0 16.5 0.00 0.00 0.00 84 1006.1
20260505112541 68 176 7.0 18.2 0.00 0.00 0.00 84 1006.1
20260505112041 67 204 5.2 18.2 0.00 0.00 0.00 84 1006.0
20260505111604 67 198 6.1 16.5 0.00 0.00 0.00 84 1005.9
20260505111041 67 240 7.8 16.5 0.00 0.00 0.00 84 1005.7
20260505110541 67 159 5.2 16.5 0.00 0.00 0.00 84 1005.6
20260505102040 67 157 7.8 14.8 0.00 0.00 0.00 83 1005.7
20260505101549 67 255 7.8 15.6 0.00 0.00 0.00 84 1005.6
20260505101041 67 179 6.1 15.6 0.00 0.00 0.00 83 1005.7
20260505100542 67 167 6.1 17.4 0.00 0.00 0.00 83 1005.7
20260505100052 67 191 7.8 20.9 0.00 0.00 0.00 83 1005.6
20260505095540 67 163 8.7 20.9 0.00 0.00 0.00 83 1005.7
20260505095038 67 176 7.0 15.6 0.00 0.00 0.00 83 1005.8
20260505094548 67 186 7.0 15.6 0.00 0.00 0.00 83 1005.8
20260505094042 67 172 6.1 13.9 0.00 0.00 0.00 83 1005.9
20260505093542 67 207 5.2 13.9 0.00 0.00 0.00 83 1006.0
20260505093053 67 165 7.0 13.9 0.00 0.00 0.00 83 1006.0
20260505092542 67 178 7.0 20.0 0.00 0.00 0.00 83 1006.1
20260505092042 67 173 7.0 20.0 0.00 0.00 0.00 82 1006.1
20260505091549 67 203 7.8 13.9 0.00 0.00 0.00 82 1006.2
20260505091042 67 168 6.1 18.2 0.00 0.00 0.00 82 1006.1
20260505090538 67 203 7.0 19.1 0.00 0.00 0.00 82 1006.2
20260505090058 67 206 7.8 19.1 0.00 0.00 0.00 82 1006.2
20260505085542 67 168 7.0 18.2 0.00 0.00 0.00 82 1006.1
20260505085043 67 203 7.8 13.9 0.00 0.00 0.00 82 1006.2
20260505084552 67 141 7.0 13.9 0.00 0.00 0.00 82 1006.3
20260505084041 67 209 6.1 12.2 0.00 0.00 0.00 82 1006.3
20260505083542 67 119 6.1 17.4 0.00 0.00 0.00 82 1006.4
20260505083102 67 195 7.0 17.4 0.00 0.00 0.00 82 1006.6
20260505082541 67 132 7.0 13.0 0.00 0.00 0.00 82 1006.7
20260505082041 67 127 4.3 18.2 0.00 0.00 0.00 82 1006.6
20260505081558 67 134 6.1 18.2 0.00 0.00 0.00 81 1006.7
20260505081043 67 145 6.1 15.6 0.00 0.00 0.00 81 1006.7
20260505080538 67 159 6.1 16.5 0.00 0.00 0.00 81 1006.8
20260505080050 67 161 8.7 16.5 0.00 0.00 0.00 81 1006.7
20260505075541 67 137 5.2 14.8 0.00 0.00 0.00 81 1006.7
20260505075041 67 197 7.0 23.5 0.00 0.00 0.00 80 1006.8
20260505074549 67 167 6.1 23.5 0.00 0.00 0.00 80 1006.7
20260505074041 67 184 7.8 17.4 0.00 0.00 0.00 80 1006.8
20260505073541 67 193 7.0 19.1 0.00 0.00 0.00 79 1006.9
20260505073055 67 161 8.7 19.1 0.00 0.00 0.00 79 1006.8
20260505072540 67 159 9.6 19.1 0.00 0.00 0.00 79 1006.9
20260505072041 67 203 7.8 20.9 0.00 0.00 0.00 79 1007.0
20260505071550 67 177 7.8 20.9 0.00 0.00 0.00 79 1006.9
20260505071042 67 157 9.6 20.9 0.00 0.00 0.00 79 1007.1
20260505070544 67 150 7.0 20.9 0.00 0.00 0.00 79 1007.2
20260505070053 67 157 7.8 15.6 0.00 0.00 0.00 79 1007.2
20260505065543 67 160 8.7 17.4 0.00 0.00 0.00 79 1007.3
20260505065041 67 191 7.0 17.4 0.00 0.00 0.00 79 1007.4
20260505064556 67 150 7.0 16.5 0.00 0.00 0.00 78 1007.5
20260505064041 67 168 7.8 14.8 0.00 0.00 0.00 78 1007.4
20260505063541 67 143 6.1 15.6 0.00 0.00 0.00 78 1007.5
20260505063053 67 154 7.8 15.6 0.00 0.00 0.00 78 1007.6
20260505062542 67 165 7.0 15.6 0.00 0.00 0.00 78 1007.7
20260505062041 67 150 6.1 13.9 0.00 0.00 0.00 78 1007.8
20260505061552 67 159 7.0 14.8 0.00 0.00 0.00 77 1007.9
20260505061042 67 178 6.1 14.8 0.00 0.00 0.00 77 1008.0
20260505060542 67 209 7.8 14.8 0.00 0.00 0.00 77 1007.9
20260505060103 67 148 7.0 13.0 0.00 0.00 0.00 77 1007.9
20260505055543 67 154 6.1 13.9 0.00 0.00 0.00 77 1008.0
20260505055041 67 167 6.1 17.4 0.00 0.00 0.00 76 1007.9
20260505054558 67 175 7.8 17.4 0.00 0.00 0.00 76 1008.0
20260505054041 67 145 6.1 14.8 0.00 0.00 0.00 76 1008.0
20260505053614 67 155 7.0 13.9 0.00 0.00 0.00 76 1008.0
20260505053109 67 182 6.1 14.8 0.00 0.00 0.00 76 1008.1
20260505052541 67 193 6.1 14.8 0.00 0.00 0.00 75 1008.2
20260505052042 67 155 5.2 12.2 0.00 0.00 0.00 75 1008.1
20260505051555 67 130 5.2 13.9 0.00 0.00 0.00 75 1008.1
20260505051042 67 150 5.2 13.9 0.00 0.00 0.00 75 1008.2
20260505050541 68 184 6.1 13.0 0.00 0.00 0.00 75 1008.2
20260505041610 68 186 5.2 13.9 0.00 0.00 0.00 71 1008.5
20260505041042 68 172 7.8 13.9 0.00 0.00 0.00 71 1008.6
20260505040543 68 174 5.2 14.8 0.00 0.00 0.00 71 1008.5
20260505040051 68 238 5.2 14.8 0.00 0.00 0.00 70 1008.5
20260505035543 68 150 4.3 10.4 0.00 0.00 0.00 70 1008.5
20260505035045 68 200 3.5 11.3 0.00 0.00 0.00 70 1008.5
20260505034553 69 174 6.1 13.9 0.00 0.00 0.00 69 1008.5
20260505034045 69 99 5.2 13.9 0.00 0.00 0.00 69 1008.3
20260505033542 69 168 5.2 12.2 0.00 0.00 0.00 69 1008.5
20260505033049 69 177 6.1 13.0 0.00 0.00 0.00 69 1008.4
20260505032543 69 172 5.2 13.0 0.00 0.00 0.00 68 1008.3
20260505032040 69 114 7.0 13.0 0.00 0.00 0.00 68 1008.3
20260505031600 69 168 5.2 13.9 0.00 0.00 0.00 68 1008.3
20260505031044 69 188 4.3 13.9 0.00 0.00 0.00 68 1008.3
20260505030542 69 168 5.2 10.4 0.00 0.00 0.00 68 1008.3
20260505030056 69 143 4.3 9.6 0.00 0.00 0.00 68 1008.4
20260505025541 69 177 5.2 9.6 0.00 0.00 0.00 67 1008.5
20260505025041 69 168 4.3 9.6 0.00 0.00 0.00 67 1008.4
20260505024552 69 168 4.3 8.7 0.00 0.00 0.00 67 1008.3
20260505024040 69 161 3.5 8.7 0.00 0.00 0.00 67 1008.4
20260505023540 69 149 2.6 8.7 0.00 0.00 0.00 67 1008.3
20260505023100 69 0 3.5 7.8 0.00 0.00 0.00 67 1008.3
20260505022541 69 199 4.3 9.6 0.00 0.00 0.00 67 1008.3
20260505022040 69 195 4.3 9.6 0.00 0.00 0.00 67 1008.2
20260505021548 69 150 3.5 7.8 0.00 0.00 0.00 66 1008.1
20260505021040 69 157 1.7 7.8 0.00 0.00 0.00 66 1008.0
20260505020541 69 154 2.6 7.0 0.00 0.00 0.00 66 1007.9
20260505020048 69 152 4.3 7.0 0.00 0.00 0.00 66 1007.8
20260505015544 69 95 3.5 7.8 0.00 0.00 0.00 66 1007.7
20260505015041 70 168 1.7 7.8 0.00 0.00 0.00 65 1007.7
20260505014553 70 147 3.5 7.0 0.00 0.00 0.00 65 1007.6
20260505014038 70 197 3.5 7.0 0.00 0.00 0.00 64 1007.6
20260505013542 70 150 2.6 7.0 0.00 0.00 0.00 63 1007.7
20260505013054 71 151 2.6 7.0 0.00 0.00 0.00 62 1007.7
20260505012540 71 174 2.6 7.8 0.00 0.00 0.00 62 1007.7
20260505012042 71 157 3.5 8.7 0.00 0.00 0.00 62 1007.7
20260505011544 71 165 3.5 8.7 0.00 0.00 0.00 61 1007.7
20260505011041 72 154 3.5 9.6 0.00 0.00 0.00 60 1007.6
20260505010542 72 192 4.3 9.6 0.00 0.00 0.00 60 1007.9
20260505010051 73 154 4.3 9.6 0.00 0.00 0.00 59 1007.7
20260505005540 73 177 3.5 10.4 0.00 0.00 0.00 58 1007.9
20260505005040 73 167 4.3 12.2 0.00 0.00 0.00 58 1007.7
20260505004549 74 175 5.2 13.9 0.00 0.00 0.00 57 1007.8
20260505004041 74 163 6.1 13.9 0.00 0.00 0.00 57 1007.8
20260505003541 74 150 5.2 13.9 0.00 0.00 0.00 56 1007.9
20260505003050 74 165 5.2 17.4 0.00 0.00 0.00 56 1007.9
20260505002543 75 206 2.6 17.4 0.00 0.00 0.00 54 1007.9
20260505002041 75 134 7.8 20.0 0.00 0.00 0.00 54 1007.9
20260505001554 76 168 7.0 22.6 0.00 0.00 0.00 54 1007.8
20260505001041 76 178 9.6 22.6 0.00 0.00 0.00 53 1007.9
20260505000543 76 155 7.0 20.0 0.00 0.00 0.00 53 1007.7
20260505000055 77 195 7.8 13.9 0.00 0.00 0.00 53 1008.0
20260504235542 77 202 7.0 18.2 0.00 0.00 0.00 52 1008.0
20260504235041 78 186 7.8 18.2 0.00 0.00 0.00 51 1008.1
20260504234602 78 190 7.0 20.9 0.00 0.00 0.00 51 1008.1
20260504234040 78 150 7.8 20.9 0.00 0.00 0.00 51 1008.1
20260504233542 79 179 7.0 18.2 0.00 0.00 0.00 51 1008.2
20260504233046 79 197 8.7 19.1 0.00 0.00 0.00 50 1008.1
20260504232540 79 161 8.7 19.1 0.00 0.00 0.00 49 1008.2
20260504232040 79 208 4.3 16.5 0.00 0.00 0.00 49 1008.3
20260504231559 79 200 7.8 20.0 0.00 0.00 0.00 50 1008.3
20260504231042 79 136 9.6 20.0 0.00 0.00 0.00 49 1008.3
20260504230541 80 195 7.0 20.9 0.00 0.00 0.00 49 1008.4
20260504230052 80 175 8.7 22.6 0.00 0.00 0.00 48 1008.4
20260504225542 80 163 11.3 22.6 0.00 0.00 0.00 48 1008.5
20260504225042 80 179 10.4 19.1 0.00 0.00 0.00 48 1008.6
20260504224555 79 179 9.6 20.0 0.00 0.00 0.00 50 1008.6
20260504224042 80 172 9.6 20.0 0.00 0.00 0.00 49 1008.8
20260504223539 80 177 8.7 18.2 0.00 0.00 0.00 49 1008.8
20260504223055 80 199 7.8 18.2 0.00 0.00 0.00 50 1008.9
20260504222538 79 236 6.1 20.9 0.00 0.00 0.00 50 1008.9
20260504222041 79 215 9.6 21.7 0.00 0.00 0.00 51 1008.9
20260504221556 79 137 9.6 21.7 0.00 0.00 0.00 50 1009.0
20260504221039 79 150 4.3 18.2 0.00 0.00 0.00 51 1009.1
20260504220542 79 168 9.6 19.1 0.00 0.00 0.00 48 1009.0
20260504220053 81 205 7.8 20.9 0.00 0.00 0.00 47 1009.3
20260504215541 81 207 9.6 21.7 0.00 0.00 0.00 48 1009.2
20260504215042 81 209 12.2 21.7 0.00 0.00 0.00 47 1009.2
20260504214552 82 213 9.6 21.7 0.00 0.00 0.00 46 1009.5
20260504214040 81 159 11.3 21.7 0.00 0.00 0.00 47 1009.4
20260504213540 82 233 9.6 23.5 0.00 0.00 0.00 46 1009.7
20260504213053 82 167 11.3 23.5 0.00 0.00 0.00 46 1009.7
20260504212541 81 157 9.6 19.1 0.00 0.00 0.00 46 1009.9
20260504212041 82 167 7.0 22.6 0.00 0.00 0.00 47 1009.8
20260504211551 82 186 9.6 22.6 0.00 0.00 0.00 47 1009.9
20260504211042 82 222 11.3 22.6 0.00 0.00 0.00 44 1010.0
20260504210542 82 203 8.7 23.5 0.00 0.00 0.00 45 1010.1
20260504210104 82 195 11.3 24.3 0.00 0.00 0.00 45 1010.3
20260504205544 82 132 11.3 24.3 0.00 0.00 0.00 47 1010.3
20260504205042 82 134 11.3 20.9 0.00 0.00 0.00 46 1010.3
20260504204553 83 191 8.7 20.9 0.00 0.00 0.00 46 1010.4
20260504204043 83 185 7.0 20.9 0.00 0.00 0.00 47 1010.5
20260504203542 82 211 8.7 21.7 0.00 0.00 0.00 46 1010.6
20260504203052 82 167 9.6 21.7 0.00 0.00 0.00 45 1010.6
20260504202540 83 176 10.4 19.1 0.00 0.00 0.00 46 1010.8
20260504202040 83 163 9.6 20.9 0.00 0.00 0.00 46 1010.8
20260504201551 82 159 10.4 20.9 0.00 0.00 0.00 46 1011.0
20260504201040 82 129 7.8 20.0 0.00 0.00 0.00 48 1010.9
20260504200542 82 146 8.7 20.0 0.00 0.00 0.00 46 1011.1
20260504200051 82 231 7.0 20.9 0.00 0.00 0.00 46 1011.2
20260504195539 82 143 9.6 20.9 0.00 0.00 0.00 46 1011.4